Thomasville, GA

12:58 PM EST on January 19, 2018 (GMT -0500)
Thomasville Municipal

Weather History for KTVI - March, 2014

Change the Weather History Date:

Saturday, March 15, 2014

  Actual Average (KMUL) Record (KMUL)
Temperature  
Mean Temperature 56 °F -  
Max Temperature 73 °F 72 °F 86 °F (1928)
Min Temperature 39 °F 46 °F 24 °F (1993)
Degree Days  
Heating Degree Days 9    
Growing Degree Days 6 (Base 50)    
Moisture  
Dew Point 44 °F    
Average Humidity 67    
Maximum Humidity 100    
Minimum Humidity 38    
Precipitation  
Precipitation 0.00 in - - ()
Sea Level Pressure  
Sea Level Pressure 30.12 in    
Wind  
Wind Speed 1 mph (South)    
Max Wind Speed 9 mph    
Max Gust Speed -    
Visibility 10 miles    
Events      
Averages and records for this station are not official NWS values.
T = Trace of Precipitation, MM = Missing Value Source: NWS Daily Summary

Daily Weather History Graph

Daily Weather History Graph

Search for Another Location

Airport or City:

Trip Planner

Search our weather history database for the weather conditions in past years. The results will help you decide how hot, cold, wet, or windy it might be!

Date:

Astronomy

Mar. 15, 2014 Rise Set
Actual Time 7:45 AM EDT 7:43 PM EDT
Civil Twilight 7:21 AM EDT 8:07 PM EDT
Nautical Twilight 6:53 AM EDT 8:35 PM EDT
Astronomical Twilight 6:25 AM EDT 9:04 PM EDT
Moon 7:02 PM EDT (3/15) 6:54 AM EDT (3/15)
Length of Visible Light 12h 46m
Length of Day
11h 58m
Waxing Gibbous, 99% of the Moon is Illuminated
Mar 15
Waxing Gibbous
Mar 16
Full
Mar 23
Last Quarter
Mar 30
New
Apr 7
First Quarter

Hourly Weather History & Observations

Time (EDT) Temp. Windchill Dew Point Humidity Pressure Visibility Wind Dir Wind Speed Gust Speed Precip Events Conditions
12:10 AM 50.0 °F - 41.0 °F 71% 30.19 in 10.0 mi Calm Calm - N/A   Clear
12:30 AM 48.2 °F - 37.4 °F 66% 30.19 in 10.0 mi Calm Calm - N/A   Clear
12:50 AM 46.4 °F - 37.4 °F 71% 30.18 in 10.0 mi Calm Calm - N/A   Clear
1:10 AM 46.4 °F - 39.2 °F 76% 30.18 in 10.0 mi Calm Calm - N/A   Clear
1:30 AM 48.2 °F - 35.6 °F 62% 30.18 in 10.0 mi WNW 4.6 mph - N/A   Clear
1:50 AM 46.4 °F - 37.4 °F 71% 30.17 in 10.0 mi Calm Calm - N/A   Clear
2:10 AM 42.8 °F - 39.2 °F 87% 30.17 in 10.0 mi Calm Calm - N/A   Clear
2:30 AM 42.8 °F - 37.4 °F 81% 30.17 in 10.0 mi Calm Calm - N/A   Clear
2:50 AM 42.8 °F - 37.4 °F 81% 30.17 in 10.0 mi Calm Calm - N/A   Clear
3:10 AM 42.8 °F - 37.4 °F 81% 30.16 in 10.0 mi Calm Calm - N/A   Clear
3:30 AM 41.0 °F - 37.4 °F 87% 30.14 in 10.0 mi Calm Calm - N/A   Clear
3:50 AM 41.0 °F - 37.4 °F 87% 30.14 in 10.0 mi Calm Calm - N/A   Clear
4:10 AM 41.0 °F - 37.4 °F 87% 30.14 in 10.0 mi Calm Calm - N/A   Clear
4:30 AM 41.0 °F - 37.4 °F 87% 30.14 in 10.0 mi Calm Calm - N/A   Clear
4:50 AM 41.0 °F - 41.0 °F 100% 30.13 in 10.0 mi Calm Calm - N/A   Clear
5:10 AM 41.0 °F - 39.2 °F 93% 30.14 in 10.0 mi Calm Calm - N/A   Clear
5:30 AM 41.0 °F - 41.0 °F 100% 30.15 in 10.0 mi Calm Calm - N/A   Clear
5:50 AM 41.0 °F 38.0 °F 41.0 °F 100% 30.16 in 10.0 mi SE 4.6 mph - N/A   Clear
6:10 AM 41.0 °F - 41.0 °F 100% 30.16 in 10.0 mi Calm Calm - N/A   Clear
6:30 AM 41.0 °F - 41.0 °F 100% 30.17 in 10.0 mi Calm Calm - N/A   Clear
6:50 AM 41.0 °F - 39.2 °F 93% 30.16 in 10.0 mi Calm Calm - N/A   Clear
7:10 AM 41.0 °F - 39.2 °F 93% 30.17 in 10.0 mi Calm Calm - N/A   Clear
7:30 AM 39.2 °F - 39.2 °F 100% 30.17 in 10.0 mi Calm Calm - N/A   Clear
7:50 AM 39.2 °F - 39.2 °F 100% 30.17 in 10.0 mi Calm Calm - N/A   Clear
8:10 AM 41.0 °F - 41.0 °F 100% 30.19 in 7.0 mi Calm Calm - N/A   Clear
8:30 AM 42.8 °F - 42.8 °F 100% 30.20 in 10.0 mi Calm Calm - N/A   Clear
8:50 AM 46.4 °F - 44.6 °F 93% 30.20 in 10.0 mi Calm Calm - N/A   Clear
9:10 AM 46.4 °F - 44.6 °F 93% 30.19 in 10.0 mi Calm Calm - N/A   Clear
9:30 AM 51.8 °F - 42.8 °F 71% 30.19 in 10.0 mi South 3.5 mph - N/A   Clear
9:50 AM 53.6 °F - 42.8 °F 67% 30.20 in 10.0 mi South 3.5 mph - N/A   Clear
10:10 AM 57.2 °F - 44.6 °F 63% 30.21 in 10.0 mi Calm Calm - N/A   Clear
10:30 AM 59.0 °F - 46.4 °F 63% 30.20 in 10.0 mi Calm Calm - N/A   Clear
10:50 AM 60.8 °F - 44.6 °F 55% 30.19 in 10.0 mi Calm Calm - N/A   Clear
11:10 AM 62.6 °F - 46.4 °F 55% 30.19 in 10.0 mi SE 3.5 mph - N/A   Clear
11:30 AM 64.4 °F - 46.4 °F 52% 30.19 in 10.0 mi Calm Calm - N/A   Clear
11:50 AM 64.4 °F - 46.4 °F 52% 30.18 in 10.0 mi Calm Calm - N/A   Clear
12:10 PM 64.4 °F - 46.4 °F 52% 30.18 in 10.0 mi Calm Calm - N/A   Clear
12:30 PM 68.0 °F - 46.4 °F 46% 30.17 in 10.0 mi NE 4.6 mph - N/A   Clear
12:50 PM 68.0 °F - 46.4 °F 46% 30.16 in 10.0 mi NNE 3.5 mph - N/A   Clear
1:10 PM 68.0 °F - 46.4 °F 46% 30.14 in 10.0 mi Calm Calm - N/A   Clear
1:30 PM 69.8 °F - 48.2 °F 46% 30.13 in 10.0 mi Calm Calm - N/A   Clear
1:50 PM 68.0 °F - 46.4 °F 46% 30.12 in 10.0 mi ENE 3.5 mph - N/A   Clear
2:10 PM 71.6 °F - 46.4 °F 41% 30.10 in 10.0 mi Calm Calm - N/A   Clear
2:30 PM 71.6 °F - 46.4 °F 41% 30.09 in 7.0 mi South 4.6 mph - N/A   Scattered Clouds
2:50 PM 71.6 °F - 46.4 °F 41% 30.09 in 10.0 mi SSE 6.9 mph - N/A   Scattered Clouds
3:10 PM 73.4 °F - 46.4 °F 38% 30.09 in 10.0 mi West 9.2 mph - N/A   Scattered Clouds
3:30 PM 71.6 °F - 46.4 °F 41% 30.07 in 10.0 mi Calm Calm - N/A   Mostly Cloudy
3:50 PM 73.4 °F - 46.4 °F 38% 30.06 in 10.0 mi SW 6.9 mph - N/A   Mostly Cloudy
4:10 PM 71.6 °F - 46.4 °F 41% 30.06 in 10.0 mi SW 3.5 mph - N/A   Scattered Clouds
4:30 PM 71.6 °F - 46.4 °F 41% 30.05 in 10.0 mi SSW 4.6 mph - N/A   Mostly Cloudy
4:50 PM 71.6 °F - 46.4 °F 41% 30.04 in 7.0 mi SSE 3.5 mph - N/A   Overcast
5:10 PM 71.6 °F - 48.2 °F 43% 30.04 in 10.0 mi WSW 6.9 mph - N/A   Overcast
5:30 PM 71.6 °F - 48.2 °F 43% 30.04 in 10.0 mi SSW 6.9 mph - N/A   Mostly Cloudy
5:50 PM 71.6 °F - 50.0 °F 46% 30.04 in 10.0 mi SW 5.8 mph - N/A   Overcast
6:10 PM 71.6 °F - 50.0 °F 46% 30.04 in 10.0 mi Calm Calm - N/A   Overcast
6:30 PM 69.8 °F - 50.0 °F 49% 30.04 in 10.0 mi Calm Calm - N/A   Overcast
6:50 PM 69.8 °F - 51.8 °F 53% 30.04 in 10.0 mi Calm Calm - N/A   Overcast
7:10 PM 68.0 °F - 51.8 °F 56% 30.04 in 10.0 mi Calm Calm - N/A   Overcast
7:30 PM 68.0 °F - 50.0 °F 52% 30.05 in 10.0 mi SSW 9.2 mph - N/A   Overcast
7:50 PM 68.0 °F - 48.2 °F 49% 30.05 in 10.0 mi SSW 8.1 mph - N/A   Overcast
8:10 PM 64.4 °F - 48.2 °F 56% 30.05 in 10.0 mi South 5.8 mph - N/A   Overcast
8:30 PM 64.4 °F - 46.4 °F 52% 30.05 in 7.0 mi South 9.2 mph - N/A   Overcast
8:50 PM 64.4 °F - 48.2 °F 56% 30.05 in 5.0 mi SSW 5.8 mph - N/A   Haze
9:10 PM 62.6 °F - 50.0 °F 63% 30.05 in 10.0 mi South 4.6 mph - N/A   Scattered Clouds
9:30 PM 62.6 °F - 50.0 °F 63% 30.05 in 10.0 mi SSW 3.5 mph - N/A   Clear
9:50 PM 60.8 °F - 50.0 °F 68% 30.05 in 10.0 mi SSW 3.5 mph - N/A   Clear
10:10 PM 60.8 °F - 50.0 °F 68% 30.05 in 10.0 mi SSW 3.5 mph - N/A   Clear
10:30 PM 59.0 °F - 50.0 °F 72% 30.05 in 10.0 mi Calm Calm - N/A   Scattered Clouds
10:50 PM 59.0 °F - 50.0 °F 72% 30.05 in 10.0 mi Calm Calm - N/A   Scattered Clouds
11:10 PM 59.0 °F - 50.0 °F 72% 30.05 in 10.0 mi Calm Calm - N/A   Overcast
11:30 PM 57.2 °F - 50.0 °F 77% 30.05 in 10.0 mi Calm Calm - N/A   Mostly Cloudy
11:50 PM 57.2 °F - 51.8 °F 82% 30.04 in 10.0 mi Calm Calm - N/A   Mostly Cloudy